Location: Unspecified
(35.7250°N, 0.0000°E)
Time: 09:03:36
(UTC+00:00)

Explorer 7 - Pass Details

Date: 25 June 2019
Orbit: 485 x 680 km, 50.3° (Epoch: 24 August)

Event Time Altitude Azimuth Distance (km) Brightness Sun altitude
Rises 08:53:43 0° 278° (W) 2,740 10.0 47.5°
Reaches altitude 10° 08:56:30 10° 297° (WNW) 1,887 9.3 48.1°
Maximum altitude 08:59:32 18° 342° (NNW) 1,472 9.0 48.7°
Drops below altitude 10° 09:02:41 10° 26° (NNE) 1,979 10.0 49.4°
Sets 09:05:42 0° 45° (NE) 2,927 10.9 50.0°
